Livermore, CA

2:49 PM PDT on August 19, 2017 (GMT -0700)
Livermore Municipal

Weather History for KLVK - January, 2011

Change the Weather History Date:

Saturday, January 22, 2011

  Actual Average Record
Temperature  
Mean Temperature 54 °F 47 °F  
Max Temperature 69 °F 56 °F 75 °F (2014)
Min Temperature 39 °F 38 °F 19 °F (1937)
Degree Days  
Heating Degree Days 11 18  
Month to date heating degree days 410 411  
Since 1 July heating degree days 1353 1442  
Cooling Degree Days 0 0  
Month to date cooling degree days 0 0  
Year to date cooling degree days 0 0  
Growing Degree Days 4 (Base 50)    
Moisture  
Dew Point 39 °F    
Average Humidity 61    
Maximum Humidity 93    
Minimum Humidity 28    
Precipitation  
Precipitation 0.00 in 0.07 in 1.97 in (1967)
Month to date precipitation 0.46 2.34  
Year to date precipitation 0.46 2.34  
Since 1 July precipitation 6.93  
Sea Level Pressure  
Sea Level Pressure 30.02 in    
Wind  
Wind Speed 3 mph (ENE)    
Max Wind Speed 15 mph    
Max Gust Speed 21 mph    
Visibility 8 miles    
Events      
T = Trace of Precipitation, MM = Missing Value Source: NWS Daily Summary

Daily Weather History Graph

Daily Weather History Graph

Search for Another Location

Airport or City:

Trip Planner

Search our weather history database for the weather conditions in past years. The results will help you decide how hot, cold, wet, or windy it might be!

Date:

Astronomy

Jan. 22, 2011 Rise Set
Actual Time 7:18 AM PST 5:19 PM PST
Civil Twilight 6:50 AM PST 5:48 PM PST
Nautical Twilight 6:18 AM PST 6:19 PM PST
Astronomical Twilight 5:46 AM PST 6:51 PM PST
Moon 9:09 PM PST (1/22) 8:51 AM PST (1/22)
Length of Visible Light 10h 58m
Length of Day
10h 01m
Waning Gibbous, 88% of the Moon is Illuminated
Jan 22
Waning Gibbous
Jan 26
Last Quarter
Feb 2
New
Feb 10
First Quarter
Feb 18
Full

Hourly Weather History & Observations

Time (PST) Temp. Windchill Dew Point Humidity Pressure Visibility Wind Dir Wind Speed Gust Speed Precip Events Conditions
12:53 AM 43.0 °F - 39.9 °F 89% 30.06 in 7.0 mi Calm Calm - N/A   Clear
1:53 AM 41.0 °F 39.0 °F 39.0 °F 93% 30.06 in 7.0 mi East 3.5 mph - N/A   Clear
2:53 AM 41.0 °F - 37.9 °F 89% 30.04 in 6.0 mi Calm Calm - N/A   Clear
3:53 AM 39.9 °F - 37.9 °F 93% 30.04 in 6.0 mi Calm Calm - N/A   Clear
4:53 AM 39.0 °F - 37.9 °F 96% 30.04 in 5.0 mi Calm Calm - N/A   Clear
5:53 AM 41.0 °F - 39.0 °F 93% 30.05 in 6.0 mi Calm Calm - N/A   Clear
6:53 AM 39.0 °F - 37.0 °F 93% 30.05 in 5.0 mi Calm Calm - N/A   Clear
7:53 AM 41.0 °F - 37.9 °F 89% 30.05 in 5.0 mi Calm Calm - N/A   Clear
8:53 AM 46.9 °F - 42.1 °F 83% 30.05 in 7.0 mi Calm Calm - N/A   Clear
9:53 AM 53.1 °F - 45.0 °F 74% 30.05 in 9.0 mi Calm Calm - N/A   Clear
10:53 AM 64.9 °F - 43.0 °F 45% 30.04 in 10.0 mi Calm Calm - N/A   Clear
11:53 AM 64.9 °F - 41.0 °F 42% 30.02 in 10.0 mi ESE 5.8 mph - N/A   Clear
12:53 PM 66.0 °F - 41.0 °F 40% 29.99 in 10.0 mi ENE 9.2 mph - N/A   Clear
1:53 PM 69.1 °F - 36.0 °F 30% 29.98 in 10.0 mi NNE 10.4 mph - N/A   Clear
2:53 PM 66.0 °F - 41.0 °F 40% 29.97 in 10.0 mi ENE 10.4 mph - N/A   Clear
3:53 PM 64.9 °F - 45.0 °F 48% 29.97 in 10.0 mi East 6.9 mph - N/A   Clear
4:53 PM 63.0 °F - 44.1 °F 50% 29.98 in 10.0 mi Calm Calm - N/A   Clear
5:53 PM 59.0 °F - 43.0 °F 55% 29.98 in 10.0 mi Calm Calm - N/A   Clear
6:53 PM 59.0 °F - 39.9 °F 49% 29.99 in 10.0 mi Calm Calm - N/A   Clear
7:53 PM 61.0 °F - 33.1 °F 35% 30.00 in 10.0 mi Calm Calm - N/A   Clear
8:53 PM 55.0 °F - 34.0 °F 45% 30.02 in 10.0 mi Calm Calm - N/A   Clear
9:53 PM 57.0 °F - 33.1 °F 40% 30.05 in 10.0 mi East 9.2 mph - N/A   Clear
10:53 PM 59.0 °F - 32.0 °F 36% 30.05 in 10.0 mi ENE 10.4 mph - N/A   Clear
11:53 PM 53.1 °F - 34.0 °F 48% 30.05 in 10.0 mi Calm Calm - N/A   Clear